FW7828 Weather Reports


time (UTC)temp
F
wind
direction
speed
knots
gust
knots
rain 1hr
in
rain 24hr
in
rain mn
in
humidity
%
barometer
mb
20260831132040 78 12 0.9 0.9 0.00 0.00 0.00 89 1018.1
20260831131541 77 134 0.9 0.9 0.00 0.00 0.00 91 1017.9
20260831131037 77 32 0.0 0.0 0.00 0.00 0.00 94 1018.0
20260831130532 76 136 0.0 0.0 0.00 0.00 0.00 95 1018.0
20260831130027 76 0 0.0 0.9 0.00 0.00 0.00 96 1017.9
20260831125520 75 353 0.0 0.9 0.00 0.00 0.00 97 1017.9
20260831125016 75 357 0.0 0.0 0.00 0.00 0.00 97 1017.7
20260831124513 75 350 0.0 0.0 0.00 0.00 0.00 97 1017.9
20260831124008 74 350 0.0 0.0 0.00 0.00 0.00 97 1018.0
20260831123507 74 345 0.0 0.0 0.00 0.00 0.00 97 1017.9
20260831123002 74 254 0.0 0.0 0.00 0.00 0.00 97 1018.0
20260831122457 74 350 0.0 0.0 0.00 0.00 0.00 97 1017.9
20260831121952 73 24 0.0 0.0 0.00 0.00 0.00 97 1018.2
20260831121447 73 13 0.0 0.0 0.00 0.00 0.00 97 1018.1
20260831120943 73 233 0.0 0.0 0.00 0.00 0.00 97 1018.1
20260831120442 73 25 0.0 0.0 0.00 0.00 0.00 97 1017.9
20260831115937 73 1 0.0 0.0 0.00 0.00 0.00 97 1017.9
20260831115433 72 0 0.0 0.0 0.00 0.00 0.00 97 1018.0
20260831114933 72 3 0.0 0.0 0.00 0.00 0.00 97 1018.0
20260831114432 72 358 0.0 0.0 0.00 0.00 0.00 97 1018.2
20260831113928 72 357 0.0 0.0 0.00 0.00 0.00 97 1018.3
20260831113427 72 343 0.0 0.0 0.00 0.00 0.00 97 1018.2
20260831112922 71 354 0.0 0.0 0.00 0.00 0.00 97 1018.1
20260831112422 71 341 0.0 0.0 0.00 0.00 0.00 97 1018.1
20260831111918 71 337 0.0 0.0 0.00 0.00 0.00 97 1018.1
20260831111414 71 348 0.0 0.0 0.00 0.00 0.00 97 1018.0
20260831110909 71 348 0.0 0.0 0.00 0.00 0.00 97 1018.0
20260831110404 71 350 0.0 0.0 0.00 0.00 0.00 97 1018.2
20260831105902 71 350 0.0 0.0 0.00 0.00 0.00 97 1017.9
20260831105358 71 329 0.0 0.0 0.00 0.00 0.00 97 1017.9
20260831104853 71 345 0.0 0.0 0.00 0.00 0.00 97 1017.8
20260831104349 71 324 0.0 0.0 0.00 0.00 0.00 97 1017.8
20260831103844 71 330 0.0 0.0 0.00 0.00 0.00 97 1018.0
20260831103340 71 339 0.0 0.0 0.00 0.00 0.00 97 1017.8
20260831102835 71 338 0.0 0.0 0.00 0.00 0.00 97 1017.7
20260831102329 71 5 0.0 0.0 0.00 0.00 0.00 97 1017.8
20260831101825 71 342 0.0 0.0 0.00 0.00 0.00 97 1017.7
20260831101320 71 349 0.0 0.0 0.00 0.00 0.00 97 1017.8
20260831100816 71 349 0.0 0.0 0.00 0.00 0.00 97 1017.7
20260831100312 71 349 0.0 0.0 0.00 0.00 0.00 97 1017.6
20260831095811 71 349 0.0 0.0 0.00 0.00 0.00 97 1017.7
20260831095306 71 349 0.0 0.0 0.00 0.00 0.00 97 1017.7
20260831094801 71 349 0.0 0.0 0.00 0.00 0.00 97 1017.6
20260831094256 71 346 0.0 0.0 0.00 0.00 0.00 97 1017.5
20260831093752 71 351 0.0 0.0 0.00 0.00 0.00 97 1017.3
20260831093252 71 356 0.0 0.0 0.00 0.00 0.00 97 1017.7
20260831092749 71 349 0.0 0.9 0.00 0.00 0.00 97 1017.6
20260831092244 71 357 0.0 0.9 0.00 0.00 0.00 97 1018.0
20260831091743 72 320 0.0 0.0 0.00 0.00 0.00 97 1017.9
20260831091240 72 334 0.0 0.0 0.00 0.00 0.00 97 1017.7
20260831090735 72 322 0.0 0.0 0.00 0.00 0.00 97 1017.8
20260831090231 72 346 0.0 0.0 0.00 0.00 0.00 97 1017.6
20260831085727 72 352 0.0 0.0 0.00 0.00 0.00 97 1017.7
20260831085221 72 339 0.9 0.9 0.00 0.00 0.00 97 1017.5
20260831084717 72 333 0.0 0.0 0.00 0.00 0.00 97 1017.5
20260831084213 72 339 0.0 0.0 0.00 0.00 0.00 97 1017.4
20260831083709 72 327 0.0 0.9 0.00 0.00 0.00 97 1017.6
20260831083204 72 327 0.0 0.0 0.00 0.00 0.00 97 1017.6
20260831082702 72 336 0.0 0.0 0.00 0.00 0.00 97 1017.5
20260831082158 72 345 0.0 0.0 0.00 0.00 0.00 97 1017.5
20260831081653 72 329 0.0 0.0 0.00 0.00 0.00 97 1017.5
20260831081149 72 322 0.0 0.0 0.00 0.00 0.00 97 1017.7
20260831080645 73 333 0.0 0.9 0.00 0.00 0.00 97 1017.6
20260831080139 73 2 0.0 0.0 0.00 0.00 0.00 97 1017.7
20260831075635 73 328 0.0 0.0 0.00 0.00 0.00 97 1017.8
20260831075130 73 352 0.0 0.0 0.00 0.00 0.00 97 1017.8
20260831074629 73 334 0.9 0.9 0.00 0.00 0.00 97 1017.7
20260831074124 73 338 0.0 0.0 0.00 0.00 0.00 97 1017.6
20260831073619 73 342 0.0 0.0 0.00 0.00 0.00 97 1017.8
20260831073118 73 349 0.0 0.0 0.00 0.00 0.00 97 1017.9
20260831072614 73 355 0.9 0.9 0.00 0.00 0.00 97 1017.7
20260831072111 73 341 0.9 0.9 0.00 0.00 0.00 96 1017.9
20260831071609 73 349 0.0 0.0 0.00 0.00 0.00 96 1017.6
20260831071104 74 343 0.0 0.0 0.00 0.00 0.00 96 1017.6
20260831070603 74 342 0.0 0.0 0.00 0.00 0.00 96 1017.8
20260831070058 74 342 0.0 0.0 0.00 0.00 0.00 96 1017.8
20260831065556 74 342 0.0 0.0 0.00 0.00 0.00 96 1017.8
20260831065050 74 342 0.0 0.0 0.00 0.00 0.00 96 1017.8
20260831064546 74 340 0.0 0.9 0.00 0.00 0.00 96 1017.7
20260831064041 74 342 0.0 0.0 0.00 0.00 0.00 96 1018.1
20260831063537 74 343 0.0 0.0 0.00 0.00 0.00 96 1017.9
20260831063031 74 349 0.0 0.0 0.00 0.00 0.00 96 1017.8
20260831062526 74 349 0.0 0.0 0.00 0.00 0.00 96 1017.8
20260831062026 74 349 0.0 0.0 0.00 0.00 0.00 96 1018.1
20260831061524 74 349 0.0 0.0 0.00 0.00 0.00 96 1018.0
20260831061020 74 351 0.0 0.0 0.00 0.00 0.00 96 1018.1
20260831060520 74 355 0.0 0.0 0.00 0.00 0.00 96 1018.2
20260831060016 74 355 0.0 0.0 0.00 0.00 0.00 96 1018.1
20260831055510 74 356 0.0 0.0 0.00 0.00 0.00 96 1018.1
20260831055006 74 2 0.0 0.0 0.00 0.00 0.00 96 1018.3
20260831054506 74 354 0.0 0.0 0.00 0.00 0.00 96 1018.2
20260831054005 74 348 0.0 0.0 0.00 0.00 0.00 96 1018.5
20260831053503 74 350 0.0 0.0 0.00 0.00 0.00 96 1018.5
20260831052958 74 350 0.0 0.0 0.00 0.00 0.00 96 1018.4
20260831052457 74 342 0.0 0.0 0.00 0.00 0.00 96 1018.8
20260831051956 74 350 0.0 0.0 0.00 0.00 0.00 96 1018.9
20260831051455 74 350 0.0 0.0 0.00 0.00 0.00 96 1018.6
20260831050954 74 350 0.0 0.0 0.00 0.00 0.00 96 1018.5
20260831050449 74 359 0.0 0.0 0.00 0.00 0.00 96 1018.6
20260831045948 74 339 0.0 0.0 0.00 0.00 0.00 96 1018.6
20260831045447 74 348 0.0 0.0 0.00 0.00 0.00 96 1018.6
20260831044942 75 353 0.0 0.0 0.00 0.00 0.00 96 1018.5
20260831044437 74 341 0.0 0.0 0.00 0.00 0.00 96 1018.6
20260831043933 74 346 0.0 0.0 0.00 0.00 0.00 96 1018.8
20260831043433 74 350 0.0 0.0 0.00 0.00 0.00 96 1018.5
20260831042928 74 355 0.0 0.0 0.00 0.00 0.00 96 1018.7
20260831042427 74 355 0.0 0.0 0.00 0.00 0.00 96 1018.6
20260831041922 74 355 0.0 0.0 0.00 0.00 0.00 96 1018.7
20260831041422 74 357 0.0 0.0 0.00 0.00 0.00 95 1018.6
20260831040917 74 352 0.0 0.0 0.00 0.00 0.00 95 1018.6
20260831040412 75 352 0.0 0.0 0.00 0.00 0.00 95 1018.6
20260831035909 75 350 0.0 0.0 0.00 0.00 0.00 95 1018.4
20260831035408 75 3 0.0 0.0 0.00 0.00 0.00 95 1018.4
20260831034903 75 10 0.0 0.0 0.00 0.00 0.00 95 1018.4
20260831034358 75 340 0.0 0.0 0.00 0.00 0.00 95 1018.7
20260831033853 75 341 0.9 0.9 0.00 0.00 0.00 95 1018.6
20260831033348 75 352 0.9 0.9 0.00 0.00 0.00 95 1018.6
20260831032844 75 346 0.0 0.0 0.00 0.00 0.00 95 1018.3
20260831032344 75 346 0.0 0.0 0.00 0.00 0.00 95 1018.4
20260831031839 75 354 0.0 0.0 0.00 0.00 0.00 95 1018.4
20260831031338 75 325 0.0 0.0 0.00 0.00 0.00 95 1018.7
20260831030834 75 337 0.0 0.0 0.00 0.00 0.00 95 1018.9
20260831030332 75 317 0.0 0.0 0.00 0.00 0.00 95 1018.6
20260831025826 75 354 0.0 0.0 0.00 0.00 0.00 95 1018.6
20260831025325 75 350 0.0 0.0 0.00 0.00 0.00 95 1018.6
20260831024821 75 293 0.0 0.9 0.00 0.00 0.00 95 1018.8
20260831024320 76 348 0.0 0.0 0.00 0.00 0.00 95 1018.6
20260831023819 76 341 0.0 0.0 0.00 0.00 0.00 95 1018.6
20260831023318 76 347 0.0 0.0 0.00 0.00 0.00 95 1018.7
20260831022814 76 345 0.0 0.0 0.00 0.00 0.00 94 1018.9
20260831022312 76 348 0.0 0.0 0.00 0.00 0.00 94 1018.7
20260831021808 76 347 0.0 0.0 0.00 0.00 0.00 94 1018.8
20260831021302 76 351 0.0 0.0 0.00 0.00 0.00 94 1018.8
20260831020758 76 354 0.0 0.0 0.00 0.00 0.00 94 1018.9
20260831020257 76 359 0.0 0.0 0.00 0.00 0.00 94 1018.8
20260831015753 76 0 0.0 0.0 0.00 0.00 0.00 94 1018.8
20260831015248 76 0 0.0 0.0 0.00 0.00 0.00 94 1018.7
20260831014743 76 0 0.0 0.0 0.00 0.00 0.00 94 1019.0
20260831014243 76 0 0.0 0.0 0.00 0.00 0.00 94 1018.7
20260831013739 76 359 0.0 0.0 0.00 0.00 0.00 93 1018.9
20260831013238 76 0 0.0 0.0 0.00 0.00 0.00 93 1018.7
20260831012733 76 0 0.0 0.0 0.00 0.00 0.00 93 1018.7
20260831012229 76 0 0.0 0.0 0.00 0.00 0.00 93 1018.9
20260831011727 76 359 0.0 0.0 0.00 0.00 0.00 93 1018.8
20260831011224 77 1 0.0 0.0 0.00 0.00 0.00 93 1018.7
20260831010719 77 0 0.0 0.0 0.00 0.00 0.00 92 1018.8
20260831010214 77 359 0.0 0.0 0.00 0.00 0.00 92 1018.6
20260831005709 77 0 0.0 0.0 0.00 0.00 0.00 92 1018.5
20260831005204 77 1 0.0 0.0 0.00 0.00 0.00 92 1018.4
20260831004659 77 0 0.0 0.0 0.00 0.00 0.00 92 1018.7
20260831004155 77 0 0.0 0.0 0.00 0.00 0.00 92 1018.5
20260831003651 77 0 0.0 0.0 0.00 0.00 0.00 92 1018.4
20260831003147 77 1 0.0 0.0 0.00 0.00 0.00 91 1018.6
20260831002645 77 0 0.0 0.0 0.00 0.00 0.00 91 1018.6
20260831002141 77 359 0.0 0.0 0.00 0.00 0.00 91 1018.6
20260831001637 77 0 0.0 0.0 0.00 0.00 0.00 90 1018.2
20260831001132 78 354 0.0 0.0 0.00 0.00 0.00 90 1018.5
20260831000629 78 306 0.0 0.9 0.00 0.00 0.00 89 1018.5
20260831000128 78 3 0.0 0.0 0.00 0.00 0.00 89 1018.3
20260830235627 78 217 0.0 0.0 0.00 0.00 0.00 89 1018.4
20260830235122 79 33 0.0 0.0 0.00 0.00 0.00 89 1018.4
20260830234617 79 137 0.0 0.0 0.00 0.00 0.00 88 1018.4
20260830234112 79 119 0.9 1.7 0.00 0.00 0.00 88 1018.4
20260830233608 79 102 0.0 0.0 0.00 0.00 0.00 88 1018.6
20260830233104 79 131 0.0 0.0 0.00 0.00 0.00 88 1018.8
20260830232559 79 121 0.0 0.0 0.00 0.00 0.00 88 1018.6
20260830232055 79 142 0.0 0.9 0.00 0.00 0.00 87 1018.7
20260830231551 79 114 0.0 0.0 0.00 0.00 0.00 87 1018.8
20260830231050 80 130 2.6 2.6 0.00 0.00 0.00 86 1018.8
20260830230545 80 184 2.6 2.6 0.00 0.00 0.00 86 1018.9
20260830230040 80 154 1.7 1.7 0.00 0.00 0.00 86 1018.8
20260830225536 80 137 0.9 0.9 0.00 0.00 0.00 86 1019.0
20260830225035 81 147 0.9 0.9 0.00 0.00 0.00 87 1018.8
20260830224533 81 154 0.9 1.7 0.00 0.00 0.00 86 1018.8
20260830224031 81 144 1.7 1.7 0.00 0.00 0.00 86 1018.9
20260830223527 82 154 0.9 1.7 0.00 0.00 0.00 86 1018.8
20260830223022 82 144 0.9 0.9 0.00 0.00 0.00 86 1018.9
20260830222521 83 153 1.7 1.7 0.00 0.00 0.00 85 1018.6
20260830222018 83 133 0.9 0.9 0.00 0.00 0.00 83 1018.6
20260830221514 82 103 0.0 0.0 0.00 0.00 0.00 85 1018.6
20260830221010 83 353 0.0 0.0 0.00 0.00 0.00 85 1018.6
20260830220509 83 349 0.0 0.0 0.00 0.00 0.00 85 1018.8
20260830220008 83 26 0.0 0.0 0.00 0.00 0.00 84 1018.6
20260830215502 83 30 0.0 0.0 0.00 0.00 0.00 83 1018.7
20260830214956 84 139 0.0 0.0 0.00 0.00 0.00 82 1018.7
20260830214451 84 10 0.0 0.0 0.00 0.00 0.00 83 1018.6
20260830213946 84 99 0.9 0.9 0.00 0.00 0.00 80 1018.8
20260830213441 83 125 1.7 1.7 0.00 0.00 0.00 80 1018.6
20260830212937 84 47 0.0 0.0 0.00 0.00 0.00 83 1018.5
20260830212432 84 70 0.0 0.0 0.00 0.00 0.00 81 1018.6
20260830211931 84 118 0.9 1.7 0.00 0.00 0.00 79 1018.5
20260830211426 84 105 0.0 0.9 0.00 0.00 0.00 79 1018.5
20260830210922 84 77 0.0 0.9 0.00 0.00 0.00 77 1018.4
20260830210421 85 59 0.0 0.0 0.00 0.00 0.00 79 1018.5
20260830205919 85 102 1.7 1.7 0.00 0.00 0.00 77 1018.5
20260830205418 84 56 0.0 0.0 0.00 0.00 0.00 79 1018.6
20260830204914 84 82 0.9 0.9 0.00 0.00 0.00 79 1018.3
20260830204413 85 73 0.0 0.0 0.00 0.00 0.00 78 1018.3
20260830203908 85 75 0.9 0.9 0.00 0.00 0.00 78 1018.5
20260830203404 85 110 0.9 0.9 0.00 0.00 0.00 76 1018.5
20260830202903 85 77 1.7 1.7 0.00 0.00 0.00 76 1018.6
20260830202359 84 50 0.0 0.0 0.00 0.00 0.00 79 1018.6
20260830201855 84 129 0.9 0.9 0.00 0.00 0.00 77 1018.7
20260830201354 84 107 0.9 1.7 0.00 0.00 0.00 77 1018.5
20260830200849 85 125 0.9 1.7 0.00 0.00 0.00 76 1018.8
20260830200349 85 110 1.7 1.7 0.00 0.00 0.00 76 1018.7
20260830195844 86 92 0.9 0.9 0.00 0.00 0.00 74 1018.5
20260830195338 86 84 0.0 0.9 0.00 0.00 0.00 70 1018.5
20260830194837 87 56 0.0 0.0 0.00 0.00 0.00 70 1018.5
20260830194330 86 65 0.0 0.9 0.00 0.00 0.00 67 1018.8
20260830193825 86 67 0.9 0.9 0.00 0.00 0.00 69 1018.9
20260830193319 86 116 0.9 0.9 0.00 0.00 0.00 69 1019.0
20260830192816 86 96 0.9 0.9 0.00 0.00 0.00 70 1018.9
20260830192315 87 137 0.9 1.7 0.00 0.00 0.00 68 1019.1
20260830191811 87 113 0.9 0.9 0.00 0.00 0.00 67 1019.1
20260830191310 86 128 1.7 1.7 0.00 0.00 0.00 68 1018.9
20260830190806 87 98 0.9 0.9 0.00 0.00 0.00 67 1019.4
20260830190301 86 98 0.9 1.7 0.00 0.00 0.00 67 1019.3
20260830185800 86 127 0.9 0.9 0.00 0.00 0.00 73 1019.3
20260830185255 87 115 0.9 1.7 0.00 0.00 0.00 67 1019.2
20260830184755 87 43 0.0 0.0 0.00 0.00 0.00 71 1019.4
20260830184254 86 92 0.9 0.9 0.00 0.00 0.00 73 1019.4
20260830183750 85 111 1.7 1.7 0.00 0.00 0.00 69 1019.8
20260830183250 86 93 1.7 1.7 0.00 0.00 0.00 70 1019.7
20260830182745 85 96 0.9 0.9 0.00 0.00 0.00 72 1019.7
20260830182241 86 118 0.9 1.7 0.00 0.00 0.00 73 1019.6
20260830181737 86 116 0.0 0.9 0.00 0.00 0.00 70 1019.7
20260830181232 86 89 0.9 1.7 0.00 0.00 0.00 71 1019.5
20260830180730 86 143 0.9 1.7 0.00 0.00 0.00 70 1019.6
20260830180225 86 124 0.9 0.9 0.00 0.00 0.00 69 1019.7
20260830175720 86 79 0.9 0.9 0.00 0.00 0.00 71 1019.4
20260830175215 85 70 0.0 0.9 0.00 0.00 0.00 73 1019.6
20260830174709 85 126 1.7 1.7 0.00 0.00 0.00 73 1019.7
20260830174206 86 148 0.9 0.9 0.00 0.00 0.00 72 1019.8
20260830173705 85 139 1.7 1.7 0.00 0.00 0.00 74 1019.8
20260830173200 86 105 1.7 1.7 0.00 0.00 0.00 71 1019.8
20260830172657 85 75 0.0 0.9 0.00 0.00 0.00 74 1019.9
20260830172153 85 119 0.9 0.9 0.00 0.00 0.00 74 1019.9
20260830171648 85 132 0.9 0.9 0.00 0.00 0.00 74 1019.8
20260830171143 85 146 0.9 0.9 0.00 0.00 0.00 71 1020.3
20260830170637 85 95 0.9 0.9 0.00 0.00 0.00 75 1020.1
20260830170137 85 116 2.6 2.6 0.00 0.00 0.00 75 1020.1
20260830165631 85 101 0.0 0.0 0.00 0.00 0.00 75 1020.4
20260830165127 84 114 0.0 0.9 0.00 0.00 0.00 75 1020.4
20260830164623 85 130 1.7 1.7 0.00 0.00 0.00 74 1020.2
20260830164119 84 124 0.9 0.9 0.00 0.00 0.00 73 1020.4
20260830163616 84 124 0.9 1.7 0.00 0.00 0.00 74 1020.4
20260830163115 84 130 0.9 1.7 0.00 0.00 0.00 76 1020.6
20260830162611 84 88 0.9 0.9 0.00 0.00 0.00 76 1020.4
20260830162106 84 124 0.9 0.9 0.00 0.00 0.00 77 1020.5
20260830161601 84 139 0.9 1.7 0.00 0.00 0.00 77 1020.6
20260830161055 83 100 0.9 0.9 0.00 0.00 0.00 77 1020.4
20260830160551 84 82 0.0 0.9 0.00 0.00 0.00 78 1020.7
20260830160046 83 113 0.9 1.7 0.00 0.00 0.00 77 1020.2
20260830155543 83 91 0.9 0.9 0.00 0.00 0.00 77 1020.4
20260830155038 84 115 1.7 1.7 0.00 0.00 0.00 78 1020.5
20260830154533 84 94 0.9 1.7 0.00 0.00 0.00 78 1020.5
20260830154030 84 126 1.7 1.7 0.00 0.00 0.00 78 1020.7
20260830153526 85 89 0.9 0.9 0.00 0.00 0.00 79 1020.6
20260830153025 84 357 0.9 0.9 0.00 0.00 0.00 79 1020.6
20260830152520 84 38 0.0 0.0 0.00 0.00 0.00 80 1020.9
20260830152018 84 31 0.0 0.9 0.00 0.00 0.00 81 1020.8
20260830151513 83 12 0.9 0.9 0.00 0.00 0.00 81 1020.9
20260830151008 82 34 0.0 0.9 0.00 0.00 0.00 82 1021.0
20260830150502 83 350 0.9 0.9 0.00 0.00 0.00 82 1021.1
20260830150001 83 33 0.9 0.9 0.00 0.00 0.00 83 1021.1
20260830145456 83 85 1.7 1.7 0.00 0.00 0.00 83 1021.0
20260830144951 83 89 0.9 0.9 0.00 0.00 0.00 81 1021.5
20260830144447 83 79 0.0 0.9 0.00 0.00 0.00 81 1021.4
20260830143942 82 80 0.9 0.9 0.00 0.00 0.00 84 1021.4
20260830143438 82 153 1.7 1.7 0.00 0.00 0.00 84 1021.2
20260830142936 82 114 2.6 2.6 0.00 0.00 0.00 85 1021.2
20260830142431 81 109 1.7 1.7 0.00 0.00 0.00 86 1021.3
20260830141926 81 100 0.9 0.9 0.00 0.00 0.00 87 1021.2
20260830141422 80 120 1.7 1.7 0.00 0.00 0.00 88 1021.0
20260830140917 79 122 0.9 0.9 0.00 0.00 0.00 90 1021.1
20260830140412 78 157 1.7 1.7 0.00 0.00 0.00 93 1021.1
20260830135911 77 97 0.9 0.9 0.00 0.00 0.00 97 1021.4
20260830135407 78 78 0.9 0.9 0.00 0.00 0.00 97 1021.3
20260830134902 77 9 0.0 0.0 0.00 0.00 0.00 98 1021.3
20260830134357 78 352 0.0 0.0 0.00 0.00 0.00 98 1021.2
20260830133853 77 9 0.0 0.0 0.00 0.00 0.00 98 1021.4
20260830133348 78 5 0.0 0.0 0.00 0.00 0.00 98 1021.4
20260830132843 78 63 0.0 0.0 0.00 0.00 0.00 98 1021.3